Regional Weather Roundup
Issued by NWS

Home | Current Version | Previous Version | Text Only | Print | Product List | Glossary Off
Versions: 1 2 3 4 5 6 7 8 9 10 11 12 13 14 15 16 17 18 19 20 21 22 23 24 25 26 27 28 29 30 31 32 33 34 35 36 37 38 39 40 41 42 43 44 45 46 47 48 49 50

000
ASUS43 KDTX 210310
RWRMI
MICHIGAN HOURLY REGIONAL WEATHER ROUNDUP
NATIONAL WEATHER SERVICE DETROIT/PONTIAC MI
1100 PM EDT MON OCT 20 2014

NOTE: "FAIR" INDICATES FEW OR NO CLOUDS BELOW 12,000 FEET WITH NO
SIGNIFICANT WEATHER AND/OR OBSTRUCTION TO VISIBILITY.

MIZ047>049-052>055-059>063-066>070-074>076-081>083-210400-
SOUTHEAST LOWER MICHIGAN

CITY           SKY/WX    TMP DP  RH WIND       PRES   REMARKS
ADRIAN         MOCLDY    53  47  79 N10       29.88S
ALMA           CLOUDY    49  43  80 NW13      29.91S
ANN ARBOR      MOCLDY    53  48  83 NW8       29.87R
BAD AXE        CLOUDY    48  47  97 NW7       29.87S
DETROIT CITY   LGT RAIN  54  49  83 NW5       29.86R
DETROIT        CLOUDY    53  50  89 NW8       29.87R
FLINT          CLOUDY    50  44  80 NW7       29.90R
GROSSE ILE     LGT RAIN  54  50  87 NW3       29.85R
HILLSDALE      CLOUDY    52  51  94 NW6       29.89S
HOWELL         CLOUDY    48  44  84 NW9       29.89R

CITY           SKY/WX    TMP DP  RH WIND       PRES   REMARKS
JACKSON        CLOUDY    50  47  89 NW8       29.90R
LAMBERTVILLE   CLOUDY    54  50  87 NW3       29.87S
LANSING        CLOUDY    50  43  77 N7        29.91S
LAPEER         NOT AVBL
MASON          CLOUDY    49  44  82 N5        29.90S
MONROE         LGT RAIN  52  52 100 NW5       29.85S
MT. CLEMENS    LGT RAIN  53  52  97 NW9       29.83R
PONTIAC        CLOUDY    49  44  83 N12       29.87R
PORT HOPE        N/A     50  46  86 NW9       29.84S
PORT HURON     CLOUDY    50  50 100 NW6       29.85R
TRI CITIES     CLOUDY    50  43  77 NW9       29.91R
YPSILANTI      CLOUDY    56  49  77 N7        29.87R
$$
MIZ043>046-050>051-056>058-064>065-071>073-077>080-210400-
SOUTHWEST LOWER MICHIGAN

CITY           SKY/WX    TMP DP  RH WIND       PRES   REMARKS
BATTLE CREEK   CLOUDY    50  42  74 NW10      29.93R
BENTON HARBOR  LGT RAIN  51  44  77 VRB7G18   29.96S
BIG RAPIDS     CLOUDY    46  46 100 NW6       29.93S
COLDWATER      CLOUDY    52  46  80 NW7       29.91S
HOLLAND        CLOUDY    50  43  77 N5        29.97R
GRAND RAPIDS   CLOUDY    49  43  80 NW10      29.94R
KALAMAZOO      CLOUDY    50  41  71 N10       29.94R
MARSHALL       CLOUDY    50  43  78 NW8       29.91R
MUSKEGON       LGT RAIN  49  44  83 N9        29.97R
$$
MIZ016>042-210400-
NORTHERN LOWER MICHIGAN

CITY           SKY/WX    TMP DP  RH WIND       PRES   REMARKS
ALPENA         LGT RAIN  46  45  96 N13       29.88R FOG
BEAVER ISLAND  CLOUDY    47  43  88 N10G17    29.96R
BELLAIRE       CLOUDY    46  43  90 NW6       29.94S
CADILLAC       DRIZZLE   44  43  95 NW12G17   29.93R
CHARLEVOIX     CLOUDY    48  45  89 N14G20    29.96S
FRANKFORT      CLOUDY    47  41  78 N9        29.97S
GAYLORD        CLOUDY    44  41  89 VRB3      29.90R
GRAYLING       CLOUDY    46  45  94 NW7       29.92R FOG
HARBOR SPRINGS DRIZZLE   46  44  91 NW5       29.92S
HOUGHTON LAKE  CLOUDY    45  42  89 NW13G18   29.91R
MANISTEE       CLOUDY    46  41  81 N9        29.98S
OSCODA         CLOUDY    46  45  94 NW8       29.86S
PELLSTON       LGT RAIN  46  45  96 N7        29.93R FOG
TRAVERSE CITY  CLOUDY    47  42  83 NW13      29.94R
$$
MIZ007>008-015-210400-
EASTERN UPPER MICHIGAN

CITY           SKY/WX    TMP DP  RH WIND       PRES   REMARKS
KINROSS        CLOUDY    45  43  93 N8        29.94R
MACKINAC ISLAN CLOUDY    46  46  97 N9        29.92R
NEWBERRY       CLOUDY    43  40  91 N9        29.96R
S. S. MARIE    CLOUDY    45  37  73 NE9       29.94R
$$
MIZ004>006-011>014-085-210400-
CENTRAL UPPER MICHIGAN

CITY           SKY/WX    TMP DP  RH WIND       PRES   REMARKS
MANISTIQUE     CLOUDY    43  42  97 NW8       29.98R FOG
ESCANABA       MOCLDY    45  37  76 N8        30.01S
MENOMINEE      CLOUDY    46  37  71 N10       30.01S
SAWYER-GWINN   CLOUDY    40  38  91 N15G23    30.02S
$$
MIZ001>003-009>011-084-210400-
WESTERN UPPER MICHIGAN

CITY           SKY/WX    TMP DP  RH WIND       PRES   REMARKS
IRON MOUNTAIN  CLOUDY    43  36  76 NW9       30.02R
HOUGHTON       CLOUDY    41  35  79 NE12      30.07S
COPPER HARBOR    N/A     43  38  82 E21       30.08R
IRONWOOD       CLOUDY    43  39  87 NE6       30.07R
$$

ABBREVIATIONS USED IN REMARKS
   TC - TEMPERATURE IN CELSIUS
  WCI - WIND CHILL INDEX
   HX - HEAT INDEX
  VSB - VISIBILITY




USA.gov is the U.S. government's official web portal to all federal, state and local government web resources and services.